Regional Weather Roundup
Issued by NWS

Home | Current Version | Previous Version | Text Only | Print | Product List | Glossary Off
Versions: 1 2 3 4 5 6 7 8 9 10 11 12 13 14 15 16 17 18 19 20 21 22 23 24 25 26 27 28 29 30 31 32 33 34 35 36 37 38 39 40 41 42 43 44 45 46 47 48 49 50

000
ASUS43 KLMK 240510
RWRKY
KENTUCKY REGIONAL WEATHER ROUNDUP
NATIONAL WEATHER SERVICE LOUISVILLE KY
1200 AM EST FRI FEB 24 2017

NOTE "FAIR" INDICATES FEW OR NO CLOUDS BELOW 12,000 FEET
WITH NO SIGNIFICANT WEATHER AND/OR OBSTRUCTIONS TO VISIBILITY.

KYZ001>023-026-027-061>063-070>075-240600-
WESTERN AND SOUTH CENTRAL KENTUCKY

CITY           SKY/WX    TMP DP  RH WIND       PRES   REMARKS
PADUCAH        PTCLDY    64  55  72 S9G21     29.64R
HENDERSON      CLOUDY    64  54  68 S15       29.64F
OWENSBORO      PTCLDY    63  55  75 S14       29.67F
HOPKINSVILLE   CLEAR     64  55  72 S9        29.70S
BOWLING GREEN  CLOUDY    63  54  72 S7        29.73S
GLASGOW        PTCLDY    62  53  72 S5        29.74S
$$

KYZ024-025-028>034-038-045-046-053-240600-
NORTH CENTRAL KENTUCKY

CITY           SKY/WX    TMP DP  RH WIND       PRES   REMARKS
LOUISVILLE/SDF CLOUDY    62  54  74 SE8       29.70F
LOUISVILLE/LOU MOCLDY    64  55  72 SE5       29.72S
FORT KNOX      PTCLDY    61  53  75 SE7       29.70F
$$

KYZ035>037-039>044-047>052-055>060-089>105-240600-
NORTHEAST KENTUCKY

CITY           SKY/WX    TMP DP  RH WIND       PRES   REMARKS
LEXINGTON      CLEAR     60  52  74 S9        29.76F
COVINGTON      MOCLDY    62  56  80 SE10      29.74S
FRANKFORT      MOCLDY    60  52  74 SE6       29.73F
$$

KYZ054-064>069-076>088-106>120-240600-
SOUTHEAST KENTUCKY

CITY           SKY/WX    TMP DP  RH WIND       PRES   REMARKS
JACKSON        CLOUDY    62  52  69 S3        29.82S
LONDON         CLEAR     56  49  77 CALM      29.81F
SOMERSET       CLEAR     59  50  72 S3        29.81S
MIDDLESBORO    MOCLDY    51  51  97 CALM      29.85S
MONTICELLO     PTCLDY    60  53  77 E5        29.81F
$$




USA.gov is the U.S. government's official web portal to all federal, state and local government web resources and services.